Waarnemingen

Advertentie
Mijn weer
Berus, Duitsland (10704): temperatuur & dauwpunt: 17.07.2017 10:00:00 - 23.07.2017 10:00:00 (CEST)Berus, Duitsland (10704): temperatuur 5cm & temperatuur -5cm: 17.07.2017 10:00:00 - 23.07.2017 10:00:00 (CEST)Berus, Duitsland (10704): temperatuur -20cm & temperatuur -100cm: 17.07.2017 10:00:00 - 23.07.2017 10:00:00 (CEST)Berus, Duitsland (10704): windsnelheid & windstoten: 17.07.2017 10:00:00 - 23.07.2017 10:00:00 (CEST)Berus, Duitsland (10704): windrichting: 17.07.2017 10:00:00 - 23.07.2017 10:00:00 (CEST)Berus, Duitsland (10704): luchtdruk: 17.07.2017 10:00:00 - 23.07.2017 10:00:00 (CEST)Berus, Duitsland (10704): zicht: 17.07.2017 10:00:00 - 23.07.2017 10:00:00 (CEST)Berus, Duitsland (10704): Zonneschijnduur: 17.07.2017 10:00:00 - 23.07.2017 10:00:00 (CEST)Berus, Duitsland (10704): neerslag: 17.07.2017 10:00:00 - 23.07.2017 10:00:00 (CEST)
Datum & Tijd tt [°C] td [°C] tt 5cm [°C] tt -5cm [°C] tt -20cm [°C] tt -100cm [°C] ff [km/u] ff [kn] fx [km/u] fx [kn] dd ppp [hPa] vv [km] sd [min] rr [mm]
23.07.2017 10:00:00 - - - - - - - - - - - - - - -
23.07.2017 09:00:00 - - - - - - - - - - - - - - -
23.07.2017 08:00:00 - - - - - - - - - - - - - - -
23.07.2017 07:00:00 - - - - - - - - - - - - - - -
23.07.2017 06:00:00 - - - - - - - - - - - - - - -
23.07.2017 05:00:00 - - - - - - - - - - - - - - -
23.07.2017 04:00:00 - - - - - - - - - - - - - - -
23.07.2017 03:00:00 - - - - - - - - - - - - - - -
23.07.2017 02:00:00 - - - - - - - - - - - - - - -
23.07.2017 01:00:00 - - - - - - - - - - - - - - -
23.07.2017 00:00:00 - - - - - - - - - - - - - - -
22.07.2017 23:00:00 - - - - - - - - - - - - - - -
22.07.2017 22:00:00 - - - - - - - - - - - - - - -
22.07.2017 21:00:00 - - - - - - - - - - - - - - -
22.07.2017 20:00:00 - - - - - - - - - - - - - - -
22.07.2017 19:00:00 - - - - - - - - - - - - - - -
22.07.2017 18:00:00 - - - - - - - - - - - - - - -
22.07.2017 17:00:00 - - - - - - - - - - - - - - -
22.07.2017 16:00:00 - - - - - - - - - - - - - - -
22.07.2017 15:00:00 - - - - - - - - - - - - - - -
22.07.2017 14:00:00 - - - - - - - - - - - - - - -
22.07.2017 13:00:00 - - - - - - - - - - - - - - -
22.07.2017 12:00:00 - - - - - - - - - - - - - - -
22.07.2017 11:00:00 - - - - - - - - - - - - - - -
22.07.2017 10:00:00 - - - - - - - - - - - - - - -
22.07.2017 09:00:00 - - - - - - - - - - - - - - -
22.07.2017 08:00:00 - - - - - - - - - - - - - - -
22.07.2017 07:00:00 - - - - - - - - - - - - - - -
22.07.2017 06:00:00 - - - - - - - - - - - - - - -
22.07.2017 05:00:00 - - - - - - - - - - - - - - -
22.07.2017 04:00:00 16,5 16,5 16,5 21,3 24,5 20,3 9 5 17 9 ZZW 1012,0 7 0 0,0
22.07.2017 03:00:00 16,6 16,5 16,4 21,9 24,9 20,3 12 7 20 11 Z 1012,1 15 0 0,0
22.07.2017 02:00:00 17,0 16,8 17,4 22,8 25,4 20,3 5 3 11 6 OZO 1012,2 7 0 0,0
22.07.2017 01:00:00 17,3 17,0 17,4 23,4 26,0 20,3 8 4 16 9 Z 1012,1 11 0 0,0
22.07.2017 00:00:00 17,1 17,0 17,4 24,4 26,6 20,3 14 8 32 18 ZW 1011,8 15 0 2,8
21.07.2017 23:00:00 17,8 16,7 17,5 26,7 27,0 20,3 26 14 44 24 ZZW 1011,6 5 0 0,4
21.07.2017 22:00:00 22,6 13,3 21,6 28,3 27,3 20,3 4 2 8 5 W 1009,8 70 0 0,0
21.07.2017 21:00:00 23,4 13,8 23,0 29,8 27,5 20,3 5 3 7 4 WZW 1009,4 70 16 0,0
21.07.2017 20:00:00 24,0 13,7 24,0 31,6 27,4 20,3 5 3 10 5 WZW 1009,8 70 21 0,0
21.07.2017 19:00:00 25,7 12,1 29,3 33,6 27,0 20,3 4 2 16 9 ZO 1009,4 70 59 0,0
21.07.2017 18:00:00 26,2 12,8 31,0 34,1 26,5 20,3 8 4 22 12 WZW 1009,5 63 58 0,0
21.07.2017 17:00:00 25,0 12,5 30,2 32,9 25,9 20,3 8 4 14 7 Z 1010,4 70 38 0,0
21.07.2017 16:00:00 23,7 12,2 26,0 32,2 25,3 20,3 6 3 21 11 WZW 1011,2 70 26 0,0
21.07.2017 15:00:00 23,6 12,0 26,7 32,0 24,6 20,3 6 4 22 12 Z 1011,8 70 29 0,0
21.07.2017 14:00:00 24,3 11,7 30,9 30,9 23,7 20,3 7 4 22 12 Z 1012,1 70 37 0,0
21.07.2017 13:00:00 23,2 11,2 28,6 30,1 22,8 20,3 10 5 27 15 ZZW 1012,6 67 55 0,0
21.07.2017 12:00:00 22,3 11,3 26,9 27,9 21,9 20,3 5 3 16 8 Z 1013,4 66 59 0,0
21.07.2017 11:00:00 21,1 12,0 25,3 24,8 21,3 20,3 7 4 16 9 O 1014,0 62 60 0,0
21.07.2017 10:00:00 19,8 13,9 22,9 21,8 21,0 20,3 5 3 12 7 ZO 1014,2 45 60 0,0
21.07.2017 09:00:00 17,4 13,3 20,6 19,4 21,0 20,3 5 3 11 6 ZO 1014,6 28 60 0,0
21.07.2017 08:00:00 15,0 12,7 16,3 17,6 21,2 20,3 7 4 10 5 NO 1014,8 22 60 0,0
21.07.2017 07:00:00 14,6 13,0 13,1 17,5 21,5 20,3 9 5 10 5 N 1014,9 27 12 0,0
21.07.2017 06:00:00 13,5 12,5 12,0 17,9 21,9 20,3 8 4 10 5 NO 1015,1 30 0 0,0
21.07.2017 05:00:00 15,1 12,9 14,3 18,3 22,2 20,3 9 5 14 8 N 1014,8 66 0 0,0
21.07.2017 04:00:00 15,5 12,9 14,3 18,6 22,6 20,2 10 5 18 10 NNW 1015,0 69 0 0,0
21.07.2017 03:00:00 16,0 12,8 14,8 19,1 23,0 20,2 13 7 21 12 NW 1015,0 70 0 0,0
21.07.2017 02:00:00 16,1 12,9 14,9 19,6 23,4 20,2 12 6 19 10 NW 1015,0 70 0 0,0
21.07.2017 01:00:00 16,8 12,3 15,6 20,3 23,9 20,2 11 6 20 11 WNW 1014,8 70 0 0,0
21.07.2017 00:00:00 17,2 11,1 15,9 21,1 24,4 20,2 13 7 19 11 WZW 1014,4 70 0 0,0
20.07.2017 23:00:00 18,2 11,0 16,9 22,2 24,8 20,2 14 8 23 13 WZW 1013,7 70 0 0,0
20.07.2017 22:00:00 19,1 10,7 17,7 23,6 25,2 20,2 16 8 30 16 WZW 1013,0 70 0 0,0
20.07.2017 21:00:00 20,6 10,5 19,7 25,4 25,5 20,1 20 11 39 21 WNW 1012,3 70 44 0,0
20.07.2017 20:00:00 22,3 11,0 23,2 27,0 25,5 20,1 26 14 43 23 NW 1011,6 70 41 0,0
20.07.2017 19:00:00 23,1 10,8 25,1 28,0 25,4 20,1 26 14 42 23 WNW 1011,4 70 31 0,0
20.07.2017 18:00:00 23,3 11,5 25,5 29,1 25,1 20,1 31 17 56 31 W 1011,3 70 56 0,0
20.07.2017 17:00:00 24,0 12,6 26,2 27,9 24,8 20,1 31 17 56 30 W 1011,0 70 25 0,0
20.07.2017 16:00:00 24,3 13,4 26,8 27,5 24,5 20,1 26 14 50 27 W 1010,9 50 36 0,0
20.07.2017 15:00:00 24,4 13,9 26,9 26,6 24,2 20,0 32 17 45 24 WNW 1010,7 35 45 0,0
20.07.2017 14:00:00 20,9 15,5 21,7 25,6 24,0 20,0 23 12 39 21 WNW 1011,4 57 11 0,0
20.07.2017 13:00:00 21,3 16,9 23,9 25,3 23,7 20,0 17 9 27 15 WNW 1011,4 48 22 0,1
20.07.2017 12:00:00 18,8 17,5 19,3 23,9 23,7 20,0 21 11 31 17 ZW 1012,1 21 13 0,0
20.07.2017 11:00:00 18,4 18,0 19,3 22,2 23,8 20,0 19 10 26 14 ZZW 1012,1 16 2 0,0
20.07.2017 10:00:00 17,2 17,2 17,7 21,5 24,1 20,0 19 10 27 15 ZZW 1012,1 6 0 0,6
20.07.2017 09:00:00 16,6 16,6 16,8 21,7 24,5 20,0 20 11 34 18 ZZW 1012,0 10 0 1,9
20.07.2017 08:00:00 16,7 16,4 16,8 22,5 24,8 19,9 14 7 28 15 ZZW 1011,6 28 0 0,7
20.07.2017 07:00:00 18,0 16,5 17,7 23,0 25,1 19,9 14 7 29 16 ZW 1011,0 44 0 0,1
20.07.2017 06:00:00 19,1 17,0 19,1 23,3 25,4 19,9 15 8 28 15 ZW 1010,9 35 0 0,0
20.07.2017 05:00:00 19,4 16,7 19,1 23,8 25,8 19,9 19 10 37 20 ZW 1010,0 25 0 0,0
20.07.2017 04:00:00 20,2 15,0 19,9 24,5 26,1 19,9 23 12 44 24 WZW 1010,2 62 0 0,0
20.07.2017 03:00:00 23,1 13,9 22,5 25,1 26,4 19,9 14 8 22 12 WZW 1009,6 56 0 0,0
20.07.2017 02:00:00 22,7 14,2 21,0 25,7 26,8 19,8 8 5 16 9 ZW 1009,7 56 0 0,0
20.07.2017 01:00:00 24,4 13,6 23,7 26,2 27,1 19,8 13 7 23 12 W 1009,4 51 0 0,0
20.07.2017 00:00:00 24,6 13,4 24,0 26,8 27,5 19,8 14 8 21 11 W 1009,3 58 0 0,0
19.07.2017 23:00:00 24,0 13,8 23,0 27,6 27,9 19,8 14 8 18 10 WZW 1009,3 52 0 0,0
19.07.2017 22:00:00 25,1 12,8 23,7 28,9 28,2 19,8 14 7 21 12 WZW 1009,1 63 0 0,0
19.07.2017 21:00:00 26,5 12,3 25,6 30,5 28,5 19,8 12 6 26 14 WZW 1008,6 70 1 0,0
19.07.2017 20:00:00 28,6 12,4 29,4 32,2 28,4 19,8 13 7 29 16 ZW 1008,1 70 57 0,0
19.07.2017 19:00:00 30,9 11,3 33,5 33,4 28,1 19,7 17 9 27 14 ZW 1007,6 55 60 0,0
19.07.2017 18:00:00 30,7 12,6 35,4 33,6 27,6 19,7 7 4 23 13 ZZW 1008,0 54 60 0,0
19.07.2017 17:00:00 30,7 12,3 35,5 32,5 27,3 19,7 15 8 27 15 WZW 1009,1 52 38 0,0
19.07.2017 16:00:00 28,4 14,4 30,6 31,6 27,0 19,7 14 8 28 15 W 1010,3 61 2 0,0
19.07.2017 15:00:00 29,6 14,7 33,9 32,5 26,4 19,7 21 11 39 21 W 1010,2 55 26 0,0
19.07.2017 14:00:00 30,5 14,3 34,7 32,1 25,7 19,7 22 12 37 20 W 1010,1 43 52 0,0
19.07.2017 13:00:00 29,0 14,3 32,4 30,5 25,0 19,6 21 11 33 18 ZW 1010,4 36 55 0,0
19.07.2017 12:00:00 28,1 13,7 33,8 29,2 24,3 19,6 - - - - - 1010,5 39 59 0,0
19.07.2017 11:00:00 26,3 13,6 29,8 26,6 23,8 19,6 18 10 28 15 - 1011,1 34 57 0,0
19.07.2017 10:00:00 24,3 13,0 27,8 24,3 23,5 19,6 22 12 29 16 - 1011,4 23 60 0,0
19.07.2017 09:00:00 22,3 13,4 25,7 22,6 23,5 19,6 16 9 23 12 - 1012,0 18 60 0,0
19.07.2017 08:00:00 20,9 12,9 22,7 21,6 23,8 19,6 13 7 19 10 - 1012,1 21 60 0,0
19.07.2017 07:00:00 20,1 13,5 19,0 21,7 24,1 19,6 10 6 17 9 - 1012,1 32 8 0,0
19.07.2017 06:00:00 20,8 13,4 19,1 22,0 24,5 19,6 14 8 21 11 - 1012,1 41 0 0,0
19.07.2017 05:00:00 20,4 15,3 17,5 22,6 24,8 19,5 6 3 10 5 - 1011,9 29 0 0,0
19.07.2017 04:00:00 21,3 15,2 19,5 23,2 25,2 19,5 7 4 13 7 - 1012,2 34 0 0,0
19.07.2017 03:00:00 21,9 15,3 19,9 23,9 25,6 19,5 9 5 14 8 - 1011,9 34 0 0,0
19.07.2017 02:00:00 22,1 15,5 20,2 24,5 26,1 19,5 13 7 17 9 - 1012,2 38 0 0,0
19.07.2017 01:00:00 22,6 15,6 21,0 25,3 26,5 19,5 13 7 17 9 - 1012,4 42 0 0,0
19.07.2017 00:00:00 23,3 15,7 21,6 26,3 26,9 19,5 12 7 17 9 - 1012,3 42 0 0,0
18.07.2017 23:00:00 24,5 15,5 22,8 27,4 27,3 19,5 11 6 17 9 - 1012,6 43 0 0,0
18.07.2017 22:00:00 25,5 15,2 23,9 28,8 27,7 19,5 11 6 16 9 - 1012,5 43 2 0,0
18.07.2017 21:00:00 26,8 15,1 25,4 30,4 27,9 19,4 7 4 16 8 - 1012,4 56 60 0,0
18.07.2017 20:00:00 28,0 14,7 30,1 31,3 28,0 19,4 9 5 14 8 - 1012,3 70 30 0,0
18.07.2017 19:00:00 28,1 14,9 30,3 32,4 28,0 19,4 8 4 22 12 - 1012,6 65 20 0,0
18.07.2017 18:00:00 27,6 14,8 28,5 34,4 27,7 19,4 9 5 23 13 - 1012,8 66 18 0,0
18.07.2017 17:00:00 29,9 15,2 34,7 34,8 27,2 19,4 7 4 22 12 - 1013,0 60 47 0,0
18.07.2017 16:00:00 29,0 15,0 33,5 34,6 26,5 19,4 9 5 21 11 - 1013,7 67 51 0,0
18.07.2017 15:00:00 28,6 15,5 33,2 33,8 25,7 19,4 9 5 22 12 - 1014,3 49 33 0,0
18.07.2017 14:00:00 27,4 15,8 31,3 33,3 24,7 19,4 12 7 22 12 - 1015,0 48 55 0,0
18.07.2017 13:00:00 26,9 16,2 32,4 30,8 23,8 19,3 11 6 22 12 - 1015,8 34 60 0,0
18.07.2017 12:00:00 25,6 16,7 30,5 28,2 23,0 19,3 10 5 24 13 - 1016,4 41 60 0,0
18.07.2017 11:00:00 24,7 15,9 28,3 25,6 22,4 19,3 12 6 26 14 - 1016,7 44 60 0,0
18.07.2017 10:00:00 22,6 16,3 25,8 23,0 22,1 19,3 14 7 27 15 - 1017,3 31 60 0,0
18.07.2017 09:00:00 20,5 16,4 23,2 21,0 22,1 19,3 20 11 32 17 - 1017,8 24 60 0,0
18.07.2017 08:00:00 18,5 15,8 20,0 20,0 22,3 19,3 21 11 27 15 - 1018,2 19 60 0,0
18.07.2017 07:00:00 17,3 15,7 16,8 20,0 22,6 19,3 22 12 29 16 - 1018,7 27 13 0,0
18.07.2017 06:00:00 17,0 15,6 16,2 20,4 22,9 19,3 22 12 29 16 - 1018,7 28 0 0,0
18.07.2017 05:00:00 17,4 15,7 16,6 20,9 23,3 19,3 22 12 28 15 - 1018,7 30 0 0,0
18.07.2017 04:00:00 17,6 15,7 16,9 21,4 23,7 19,3 21 11 29 16 - 1019,0 36 0 0,0
18.07.2017 03:00:00 18,1 15,6 17,3 22,1 24,2 19,3 21 11 28 15 - 1019,2 42 0 0,0
18.07.2017 02:00:00 18,9 15,6 18,1 22,8 24,6 19,3 21 11 29 15 - 1019,3 40 0 0,0
18.07.2017 01:00:00 19,7 15,8 18,7 23,6 25,0 19,3 19 10 27 14 - 1019,5 28 0 0,0
18.07.2017 00:00:00 20,5 16,0 19,5 24,6 25,5 19,3 17 9 25 14 - 1019,5 27 0 0,0
17.07.2017 23:00:00 21,4 16,0 20,4 25,7 25,9 19,3 16 9 27 15 - 1019,3 34 0 0,0
17.07.2017 22:00:00 22,5 15,7 21,6 27,1 26,3 19,3 15 8 23 12 - 1018,7 49 0 0,0
17.07.2017 21:00:00 23,9 15,4 23,3 28,7 26,5 19,3 15 8 25 14 - 1018,3 58 39 0,0
17.07.2017 20:00:00 25,5 14,7 27,0 29,9 26,6 19,3 14 8 24 13 - 1018,0 70 40 0,0
17.07.2017 19:00:00 25,3 14,6 25,5 31,3 26,6 19,3 10 5 18 10 - 1018,1 70 11 0,0
17.07.2017 18:00:00 25,7 14,6 27,3 32,8 26,3 19,3 10 6 29 16 - 1018,6 70 12 0,0
17.07.2017 17:00:00 27,3 14,1 32,3 33,7 25,7 19,3 9 5 16 9 - 1018,5 70 38 0,0
17.07.2017 16:00:00 26,2 13,0 29,8 33,3 25,0 19,3 7 4 15 8 - 1019,1 70 31 0,0
17.07.2017 15:00:00 26,1 11,5 30,8 33,2 24,1 19,3 7 4 16 9 - 1019,4 65 43 0,0
17.07.2017 14:00:00 25,5 12,2 28,4 31,9 23,0 19,3 6 3 19 10 - 1019,9 70 51 0,0
17.07.2017 13:00:00 25,8 15,0 31,7 29,5 22,0 19,3 7 4 21 11 - 1020,1 46 59 0,0
17.07.2017 12:00:00 24,2 14,7 29,0 26,2 21,2 19,3 8 4 18 10 - 1020,3 56 41 0,0
17.07.2017 11:00:00 23,7 16,9 26,9 24,0 20,6 19,3 9 5 27 15 - 1020,7 48 59 0,0
17.07.2017 10:00:00 20,3 16,4 24,6 21,6 20,3 19,3 5 3 9 5 - 1021,6 25 54 0,0

tt = temperatuur
td = dauwpunt
tt 5cm = temperatuur 5cm
tt -5cm = temperatuur -5cm
tt -20cm = temperatuur -20cm
tt -100cm = temperatuur -100cm
ff = windsnelheid
fx = windstoten
dd = windrichting
ppp = luchtdruk
vv = zicht
sd = Zonneschijnduur
rr = neerslag

Weerstations in de omgeving